Home > Weather > Urbana > Past weeks

Flag for USA Weather for the Past 2 Weeks in Urbana, Illinois, USA

Now
67 °F

Passing clouds.


Feels Like: 67 °F
Forecast: 42 / 63 °F
Wind: 10 mph from North

Location: University Of Illinois-Willard Airport

Current Time: May 5, 2016 at 3:12:49 PM

Latest Report: May 5, 2016 at 2:53 PM


Visibility: 10 mi

Pressure: 29.96 "Hg

Humidity: 42%

Dew Point: 43 °F

Location of UrbanaLocation

Historic Weather in Urbana — Graph

°F

Urbana Temperature Yesterday

Maximum temperature yesterday: 59 °F (at 1:53 PM)
Minimum temperature yesterday: 47 °F (at 10:53 PM)
Average temperature yesterday: 53 °F

High & Low Weather Summary for the Past Weeks

 TemperatureHumidityPressure
High83 °F (Apr 25, 1:53 PM)100% (Apr 22, 6:03 AM)30.19 "Hg (Apr 22, 6:03 AM)
Low40 °F (May 5, 3:53 AM)35% (Apr 24, 3:53 PM)29.66 "Hg (May 4, 4:53 AM)
Average57 °F78%29.90 "Hg
* Reported Apr 20 1:53 PM — May 5 1:53 PM, Urbana, Weather by CustomWeather, © 2016

Note: Actual official high and low records may vary slightly from our data, if they occured in-between our weather recording intervals... More about our weather records

Advertising

Urbana Weather History for the Previous 24 Hours

Scroll right to see more
 ConditionsComfort  
Time TempWeatherWind HumidityBarometerVisibility
1:53 PM
Thu, May 5
66 °FScattered clouds.16 mph47%29.96 "Hg10 mi
12:53 PM63 °FScattered clouds.15 mph52%29.97 "Hg10 mi
11:53 AM60 °FSunny.15 mph58%29.98 "Hg10 mi
10:53 AM56 °FSunny.15 mph65%29.98 "Hg10 mi
9:53 AM52 °FBroken clouds.15 mph69%29.97 "Hg10 mi
8:53 AM46 °FMostly cloudy.20 mph77%29.96 "Hg10 mi
8:00 AM45 °FOvercast.18 mph80%29.93 "Hg10 mi
6:53 AM42 °FOvercast.13 mph82%29.91 "Hg10 mi
5:53 AM41 °FOvercast.14 mph82%29.89 "Hg10 mi
4:53 AM41 °FOvercast.14 mph82%29.86 "Hg10 mi
3:53 AM40 °FClear.12 mph83%29.85 "Hg10 mi
2:53 AM42 °FClear.16 mph79%29.84 "Hg10 mi
1:53 AM43 °FClear.14 mph76%29.85 "Hg10 mi
12:53 AM44 °FPassing clouds.12 mph79%29.86 "Hg10 mi
11:53 PM
Wed, May 4
47 °FPassing clouds.13 mph77%29.85 "Hg10 mi
10:53 PM47 °FPassing clouds.6 mph83%29.84 "Hg10 mi
9:53 PM50 °FOvercast.No wind74%29.85 "Hg10 mi
8:53 PM49 °FOvercast.7 mph74%29.84 "Hg10 mi
7:53 PM52 °FOvercast.6 mph72%29.83 "Hg10 mi
6:53 PM53 °FPassing clouds.14 mph64%29.83 "Hg10 mi
5:53 PM54 °FMore clouds than sun.15 mph62%29.83 "Hg10 mi
4:53 PM55 °FOvercast.21 mph59%29.82 "Hg10 mi
3:53 PM55 °FMore clouds than sun.22 mph57%29.80 "Hg10 mi
Weather by CustomWeather, © 2016

See weather overviewHow to use our weather pages